Location: Famechon
(49.7599°N, 2.0615°E)
Time: 07:05:42
(UTC+00:00)

COSMOS 2428 - Visible Passes

Search period start: 30 September 2023 00:00
Search period end: 10 October 2023 00:00
Orbit: 846 x 855 km, 70.9° (Epoch: 30 September)

Date Brightness Start Highest point End Pass type
(mag) Time Alt. Az. Time Alt. Az. Time Alt. Az.
30 Sep 5.2 01:48:14 10° N 01:52:05 18° NE 01:55:56 10° ENE visible
30 Sep 3.1 03:31:47 10° NNW 03:37:29 66° ENE 03:43:09 10° SE visible
30 Sep 3.7 05:16:49 10° NW 05:21:15 24° WSW 05:25:41 10° SSW visible
30 Sep 2.7 18:29:07 10° S 18:34:39 58° ESE 18:40:14 10° NE visible
30 Sep 4.4 20:14:14 10° WSW 20:19:15 31° NW 20:24:19 10° NNE visible
30 Sep 5.7 22:03:53 10° NW 22:05:30 11° NNW 22:07:06 10° N visible
01 Oct 5.2 01:35:50 10° N 01:39:42 18° NE 01:43:32 10° ENE visible
01 Oct 3.0 03:19:23 10° NNW 03:25:05 66° ENE 03:30:45 10° SE visible
01 Oct 3.7 05:04:24 10° NW 05:08:51 24° WSW 05:13:18 10° SSW visible
01 Oct 2.8 18:16:43 10° S 18:22:16 58° ESE 18:27:50 10° NE visible
01 Oct 4.5 20:01:50 10° WSW 20:06:52 31° NW 20:11:55 10° NNE visible
01 Oct 5.7 21:51:29 10° NW 21:53:06 11° NNW 21:54:43 10° N visible
02 Oct 5.2 01:23:26 10° N 01:27:18 18° NE 01:31:08 10° ENE visible
02 Oct 3.0 03:07:00 10° NNW 03:12:41 66° ENE 03:18:21 10° SE visible
02 Oct 3.7 04:52:00 10° NW 04:56:28 24° WSW 05:00:55 10° SSW visible
02 Oct 2.8 18:04:19 10° S 18:09:52 58° ESE 18:15:26 10° NE visible
02 Oct 4.5 19:49:26 10° WSW 19:54:28 31° NW 19:59:31 10° NNE visible
02 Oct 5.7 21:39:04 10° NW 21:40:42 11° NNW 21:42:20 10° N visible
03 Oct 5.1 01:11:03 10° N 01:14:54 18° NE 01:18:44 10° ENE visible
03 Oct 3.0 02:54:36 10° NNW 03:00:18 66° ENE 03:05:58 10° SE visible
03 Oct 3.7 04:39:36 10° NW 04:44:04 24° WSW 04:48:32 10° SSW visible
03 Oct 2.8 17:51:56 10° S 17:57:28 58° ESE 18:03:02 10° NE visible
03 Oct 4.5 19:37:02 10° WSW 19:42:03 32° NW 19:47:07 10° NNE visible
03 Oct 5.6 21:26:39 10° NW 21:28:18 11° NNW 21:29:56 10° N visible
04 Oct 5.1 00:58:39 10° N 01:02:30 18° NE 01:06:20 10° ENE visible
04 Oct 3.0 02:42:13 10° NNW 02:47:54 66° ENE 02:53:34 10° SE visible
04 Oct 3.6 04:27:13 10° NW 04:31:41 24° WSW 04:36:09 10° SSW visible
04 Oct 4.5 19:24:38 10° WSW 19:29:40 32° NW 19:34:44 10° NNE visible
04 Oct 5.6 21:14:15 10° NW 21:15:54 11° NNW 21:17:33 10° N visible
05 Oct 5.1 00:46:16 10° N 00:50:06 18° NE 00:50:35 18° NE visible
05 Oct 4.2 02:29:49 10° NNW 02:39:34 19° SE 02:41:10 10° SE visible
05 Oct 4.2 04:21:56 17° SW 04:21:56 17° SW 04:23:45 10° SSW visible
05 Oct 4.5 19:12:14 10° WSW 19:17:16 32° NW 19:22:20 10° NNE visible
05 Oct 5.6 21:01:50 10° NW 21:03:29 11° NNW 21:05:10 10° N visible
06 Oct 5.2 00:33:52 10° N 00:36:13 16° NNE 00:36:13 16° NNE visible
06 Oct 5.0 02:17:25 10° NNW 02:18:06 14° NNW 02:18:06 14° NNW visible
06 Oct5.504:13:41SSW04:13:41SSW04:00:00NWvisible
06 Oct 4.5 18:59:50 10° WSW 19:04:52 32° NW 19:09:56 10° NNE visible
06 Oct 5.6 20:49:25 10° NW 20:51:05 11° NNW 20:52:47 10° N visible
07 Oct 5.3 00:21:28 10° N 00:22:56 14° N 00:22:56 14° N visible
07 Oct 4.5 18:47:25 10° WSW 18:52:28 32° NW 18:57:33 10° NNE visible
07 Oct 5.5 20:37:00 10° NW 20:38:41 11° NNW 20:40:23 10° N visible
08 Oct 5.4 00:09:04 10° N 00:10:01 13° N 00:10:01 13° N visible
08 Oct 4.5 18:35:01 10° WSW 18:40:04 32° NW 18:45:09 10° NNE visible
08 Oct 5.5 20:24:35 10° NW 20:26:17 11° NNW 20:27:59 10° N visible
08 Oct 5.5 23:56:40 10° N 23:57:17 12° N 23:57:17 12° N visible
09 Oct 4.4 18:22:38 10° WSW 18:27:40 32° NW 18:32:44 10° NNE visible
09 Oct 5.5 20:12:10 10° NW 20:13:53 11° NNW 20:15:36 10° N visible
09 Oct 5.6 23:44:16 10° N 23:44:40 11° N 23:44:40 11° N visible
